Other Surface Observations
Issued by NWS Tucson, AZ

Home | Current Version | Previous Version | Text Only | Print | Product List | Glossary On
Versions: 1 2 3 4 5 6 7 8 9 10 11 12 13 14 15 16 17 18 19 20 21 22 23 24 25 26 27 28 29 30 31 32 33 34 35 36 37 38 39 40 41 42 43 44 45 46 47 48 49 50
953
SXUS55 KTWC 222115
OSOTWC

WEATHER ROUNDUP FOR SOUTHEAST ARIZONA
NATIONAL WEATHER SERVICE TUCSON AZ
215 PM MST FRI SEP 22 2017

AZZ504>506-514-222215-
LOCATION       SKY/WX    TMP DP  RH WIND       PRES   REMARKS
TUCSON         MOSUNNY   90  45  21 S13G24    29.79F
DAVIS-MONTHAN  PTSUNNY   90  45  20 W20G28    29.77F
CHILDRENS PARK N/A      N/A N/A  21 SW10              PIMA CO DEQ
ALVERNON/22ND  N/A       88 N/A N/A SW7               PIMA CO DEQ
CHERRY/GLENN   N/A      N/A N/A N/A N/A               PIMA CO DEQ
TANGERINE      N/A       88 N/A N/A SW9               PIMA CO DEQ
CONTL RANCH    N/A       89  41  19 W6                PIMA CO DEQ
GRANT/1ST      N/A       87  41  20 SW10              PIMA CO DEQ
CRAYCROFT/22ND N/A       88  42  20 SW9               PIMA CO DEQ
GOLFLINKS/KOLB N/A       86  41  21 SW10              PIMA CO DEQ
AJO/12TH       N/A       91  43  19 SW10              PIMA CO DEQ
FAIRGROUNDS    N/A       87 N/A N/A SW13              PIMA CO DEQ
SAGUARO        N/A       90  42  19 W8G17             *SABINO CYN
SAN CARLOS     N/A       89  41  19 S13G19            *SAN CARLOS
GREEN VALLEY   N/A       87  46  24 SW12              PIMA CO DEQ
HORSE CAMP CYN N/A       82  41  23 SW14G25           *ARAVAIPA CYN
RINCON MTNS    N/A       59  43  56 SW4G13            *NR MANNING CAMP
$$

AZZ509>511-222215-
LOCATION       SKY/WX    TMP DP  RH WIND       PRES   REMARKS
SAFFORD        MOSUNNY   88  47  24 VRB6G18   29.76F
STRAY HORSE    N/A       62  43  49 SW8G15            *
TRAIL CABIN    N/A       74  47  38 S7G18             *N OF GRANVILLE
BLACK HILLS    NOT AVBL
DRY LAKE       N/A       63  41  44 S8G17             *NATANES MTNS
NOON CREEK     N/A       82  47  30 SW10G25           *PINALENO MTNS
COLUMBINE      N/A       52  47  82 SW8G19            *PINALENO MTNS
GUTHRIE        N/A       74  42  32 SW22G34           *SW OF GUTHRIE
$$

AZZ502-503-513-222215-
LOCATION       SKY/WX    TMP DP  RH WIND       PRES   REMARKS
NOGALES        SUNNY     85  49  28 S18G28    29.87F
SELLS          N/A       86  45  24 N12G19            *
SASABE         N/A       83  41  23 SW12G23           *ALTAR VLY
HOPKINS        N/A       64  49  58 W9G22             *SANTA RITA MTNS
CARR CYN       N/A       81  48  32 NE3G16            *W OF HEREFORD
$$

AZZ507-508-512-222215-
LOCATION       SKY/WX    TMP DP  RH WIND       PRES   REMARKS
SIERRA VISTA   MOSUNNY   84  47  27 SW14G26   29.91F
DOUGLAS        MOSUNNY   88  40  18 SW21G31   29.87F
EMPIRE MTNS    NOT AVBL
MULESHOE RANCH N/A       82  45  27 NW7G18            *PRESERVE
HEADQUARTERS   N/A       82  36  19 SW10G23           *CHIRICAHUA MTNS
$$

.............................NOTES.............................
THIS IS AN AUTOMATED COLLECTIVE WITH MINIMAL QUALITY CONTROL.
PIMA CO DEQ SITES HAVE NONSTANDARD WIND SENSOR HEIGHTS.
PIMA CO DEQ SITES DO NOT REPORT WIND GUSTS.
* INDICATES WIND SENSORS LOCATED AT 20 FEET INSTEAD OF 33 FEET.
..............................KEY..............................
SKY/WX - SKY CONDITION/WEATHER
TMP    - TEMPERATURE IN FAHRENHEIT
DP     - DEWPOINT IN FAHRENHEIT
RH     - RELATIVE HUMIDITY IN PERCENT
WIND   - DIRECTION AND SPEED IN MILES PER HOUR (MPH)
VRB    - VARIABLE WIND DIRECTION
PRES   - MEAN SEA LEVEL PRESSURE IN INCHES OF MERCURY
         F - FALLING PRESSURE   R - RISING PRESSURE
         S - STEADY PRESSURE
VSB    - VISIBILITY IN MILES
HX     - HEAT INDEX IN FAHRENHEIT
WCI    - WIND CHILL INDEX IN FAHRENHEIT
N/A    - NOT AVAILABLE
AFB    - AIR FORCE BASE
         DAVIS-MONTHAN IS DAVIS-MONTHAN AIR FORCE BASE
CYN    - CANYON
MTNS   - MOUNTAINS
NCA    - NATIONAL CONSERVATION AREA
NR     - NEAR
VLY    - VALLEY
CONTL  - CONTINENTAL
PIMA CO DEQ - PIMA COUNTY DEPT OF ENVIRONMENTAL QUALITY



USA.gov is the U.S. government's official web portal to all federal, state and local government web resources and services.